Overview Statistics Trail Chart Weather Telemetry Raw packets
 

This is the latest recevied weather packets stored in our database for station/object WP3OF-2. If no packets are shown the sender has not sent any weather packets the latest 10 day(s).

<< 68 69 70 71 72 73 74 >>
Time Temp. Humidity Pressure Rain* Wind** Luminosity Snow
1788100041 22.22° C 99% 1026 hPa 0 mm - 390 W/m² -
1788099737 22.22° C 99% 1026 hPa 0 mm - 260 W/m² -
1788099432 22.22° C 99% 1026 hPa 0 mm - 210 W/m² -
1788099126 22.22° C 99% 1026 hPa 0 mm - 465 W/m² -
1788098821 21.67° C 99% 1026 hPa 0 mm - 331 W/m² -
1788098511 21.67° C 99% 1026 hPa 0 mm - 271 W/m² -
1788098205 21.67° C 99% 1026 hPa 0 mm - 271 W/m² -
1788097760 21.67° C 99% 1026 hPa 0 mm - 152 W/m² -
1788097455 21.67° C 99% 1026 hPa 0 mm - 152 W/m² -
1788097151 21.67° C 99% 1026 hPa 0 mm - 152 W/m² -
1788096846 21.67° C 99% 1026 hPa 0 mm - 346 W/m² -
1788096541 21.67° C 99% 1025.6 hPa 0 mm - 170 W/m² -
1788096237 21.67° C 99% 1025.6 hPa 0 mm - 170 W/m² -
1788095936 21.67° C 99% 1025.6 hPa 0 mm - 85 W/m² -
1788095619 21.67° C 99% 1025.6 hPa 3.05 mm - 198 W/m² -
1788095314 21.67° C 99% 1025.6 hPa 3.05 mm - 198 W/m² -
1788095010 21.67° C 99% 1025.6 hPa 1.78 mm - 116 W/m² -
1788094708 21.67° C 99% 1025.6 hPa 0 mm - 65 W/m² -
1788094404 21.67° C 99% 1025.6 hPa 0 mm - 85 W/m² -
1788094101 21.67° C 99% 1025.2 hPa 1.27 mm - 58 W/m² -
1788093797 21.67° C 99% 1025.2 hPa 1.27 mm - 58 W/m² -
1788093494 22.22° C 99% 1025.2 hPa 0 mm - 78 W/m² -
1788093189 21.67° C 99% 1025.2 hPa 1.78 mm - 106 W/m² -
1788092887 21.67° C 99% 1024.9 hPa 1.78 mm - 71 W/m² -
1788092582 21.67° C 99% 1024.9 hPa 3.05 mm - 102 W/m² -

* Rain latest hour (hover to see other rain measurements)
** Current wind speed in m/s (hover to see current wind gust speed)